This is the latest recevied weather packets stored in our database for station/object N1OF. If no packets are shown the sender has not sent any weather packets the latest 10 day(s).
| Time | Temp. | Humidity | Pressure | Rain* | Wind** | Luminosity | Snow |
|---|---|---|---|---|---|---|---|
| 1778014575 | 10.56° C | 95% | 1008.8 hPa | 7.87 mm | - | - | - |
| 1778014273 | 10.56° C | 95% | 1008.6 hPa | 6.6 mm | - | - | - |
| 1778013970 | 10° C | 95% | 1008.9 hPa | 4.83 mm | - | - | - |
| 1778013667 | 10° C | 95% | 1008.6 hPa | 6.1 mm | - | - | - |
| 1778013364 | 10° C | 94% | 1008.8 hPa | 8.89 mm | - | - | - |
| 1778013061 | 10° C | 94% | 1008.8 hPa | 7.87 mm | - | - | - |
| 1778012756 | 10° C | 94% | 1008.6 hPa | 3.05 mm | - | - | - |
| 1778012453 | 10.56° C | 94% | 1008.6 hPa | 1.78 mm | - | - | - |
| 1778012150 | 10.56° C | 94% | 1008.6 hPa | 1.78 mm | - | - | - |
| 1778011847 | 10.56° C | 94% | 1008.7 hPa | 0 mm | - | - | - |
| 1778011545 | 10.56° C | 94% | 1008.4 hPa | 1.78 mm | - | - | - |
| 1778011242 | 10.56° C | 94% | 1008.5 hPa | 1.78 mm | - | - | - |
| 1778010938 | 11.11° C | 94% | 1008.5 hPa | 3.05 mm | - | - | - |
| 1778010636 | 11.11° C | 94% | 1008.2 hPa | 3.05 mm | - | - | - |
| 1778010333 | 11.11° C | 94% | 1008.9 hPa | 1.27 mm | - | - | - |
| 1778010028 | 11.67° C | 94% | 1009.1 hPa | 1.27 mm | - | - | - |
| 1778009725 | 11.67° C | 94% | 1008.9 hPa | 1.78 mm | - | - | - |
| 1778009423 | 11.67° C | 94% | 1009.1 hPa | 1.27 mm | - | - | - |
| 1778009121 | 11.11° C | 93% | 1009.1 hPa | 4.32 mm | - | - | - |
| 1778008818 | 11.11° C | 93% | 1009.2 hPa | 4.83 mm | - | - | - |
| 1778008511 | 11.11° C | 92% | 1009.4 hPa | 3.05 mm | - | - | - |
| 1778008209 | 11.11° C | 92% | 1009.4 hPa | 3.05 mm | - | - | - |
| 1778007903 | 11.11° C | 91% | 1009.4 hPa | 1.78 mm | - | - | - |
| 1778007598 | 11.11° C | 91% | 1009.3 hPa | 1.78 mm | - | - | - |
| 1778007296 | 11.67° C | 90% | 1009.3 hPa | 3.05 mm | - | - | - |
* Rain latest hour (hover to see other rain measurements)
** Current wind speed in m/s (hover to see current wind gust speed)